Date,TemperatureHighF,TemperatureAvgF,TemperatureLowF,DewpointHighF,DewpointAvgF,DewpointLowF,HumidityHigh,HumidityAvg,HumidityLow,PressureMaxIn,PressureMinIn,WindSpeedMaxMPH,WindSpeedAvgMPH,GustSpeedMaxMPH,PrecipitationSumIn
2013-5-31,74.6,73.6,71.6,66.6,66.3,65.7,82,78,76,30.01,30.00,0,0,8,0.00
2013-6-1,87.3,81.4,69.6,75.2,69.6,65.3,90,68,56,30.01,29.88,15,2,15,0.00
2013-6-2,79.4,73.2,64.7,73.0,67.6,61.8,91,83,70,29.89,29.80,17,2,17,0.00
2013-6-3,81.8,72.8,66.3,71.7,67.0,63.4,98,83,65,29.92,29.77,12,1,12,0.07
2013-6-4,78.2,67.5,58.1,63.6,57.6,53.8,97,73,47,30.09,29.92,15,1,15,0.00
2013-6-5,78.1,68.4,57.4,65.6,60.6,54.5,95,77,57,30.12,29.99,15,1,15,0.00
2013-6-6,68.5,62.5,59.0,64.6,60.1,55.3,99,92,71,30.01,29.79,6,0,6,1.56
2013-6-7,71.3,66.7,63.3,70.2,65.5,63.0,100,96,85,29.79,29.56,5,1,11,0.62
2013-6-8,82.3,71.1,61.5,69.3,63.7,59.6,96,79,55,30.04,29.72,7,2,12,0.01
2013-6-9,81.1,69.4,59.0,75.4,66.9,58.3,99,92,79,30.13,30.01,8,1,23,1.61
2013-6-10,80.9,70.8,67.0,74.4,69.1,65.8,100,95,77,30.11,29.83,10,2,17,0.83
2013-6-11,82.3,72.7,63.8,69.8,65.2,61.1,98,79,57,29.92,29.84,10,3,19,0.00
2013-6-12,90.4,77.1,62.9,76.4,69.0,60.8,96,78,57,29.93,29.81,9,2,15,0.00
2013-6-13,86.1,73.8,66.8,74.4,67.0,57.9,98,80,62,29.83,29.55,16,4,25,0.09
2013-6-14,78.6,69.5,62.2,62.1,57.1,52.8,83,65,49,30.03,29.68,19,6,30,0.00
2013-6-15,84.0,69.4,52.7,64.9,59.4,51.6,98,73,48,30.13,30.01,7,1,12,0.00
2013-6-16,84.3,75.1,59.6,72.8,66.3,57.8,97,75,59,30.06,29.94,7,2,15,0.00
2013-6-17,86.1,73.9,64.1,74.0,67.5,62.1,96,81,63,30.00,29.90,20,2,25,2.67
2013-6-18,75.9,68.9,61.5,72.1,66.6,60.1,99,93,76,29.95,29.82,6,1,12,0.24
2013-6-19,76.2,67.0,59.0,69.2,64.1,58.2,99,91,76,30.17,29.92,5,1,8,0.01
2013-6-20,77.1,69.5,64.2,69.5,65.5,59.9,99,88,71,30.29,30.17,5,1,9,0.01
2013-6-21,81.5,70.6,55.8,68.6,61.8,54.3,96,75,57,30.32,30.23,7,1,9,0.00
2013-6-22,86.1,71.7,58.7,74.4,66.4,57.3,97,84,63,30.28,30.15,8,1,10,0.00
2013-6-23,85.5,75.6,67.8,75.6,70.7,66.7,98,86,65,30.22,30.10,3,1,8,0.00
2013-6-24,88.3,76.9,66.8,78.3,71.7,66.0,99,85,65,30.17,30.06,7,1,13,0.01
2013-6-25,91.7,79.9,68.4,76.7,71.8,66.3,97,78,57,30.08,29.94,6,2,11,0.00
2013-6-26,91.1,76.7,68.7,77.9,71.4,67.7,97,85,57,29.95,29.83,32,1,32,0.10
2013-6-27,84.1,73.4,64.5,73.0,69.1,63.9,100,88,67,29.89,29.67,10,2,19,0.02
2013-6-28,91.2,80.1,68.5,75.1,68.2,60.8,93,69,46,29.69,29.49,14,3,22,0.00
2013-6-29,85.6,76.8,67.4,69.8,64.6,58.4,93,67,55,29.74,29.56,8,2,14,0.65
2013-6-30,85.4,73.5,64.9,77.3,70.2,64.3,99,90,71,29.88,29.71,9,1,14,0.01
2013-7-1,83.1,74.2,68.4,76.0,71.0,67.7,99,90,74,29.99,29.86,6,1,13,0.04
2013-7-2,77.2,73.6,70.4,74.0,71.5,69.8,98,93,84,30.19,29.98,5,1,8,0.08
2013-7-3,82.3,73.8,70.4,76.9,72.3,69.8,99,95,75,30.26,30.17,4,0,7,0.94
2013-7-4,86.0,76.7,70.3,79.5,73.1,70.0,100,89,69,30.28,30.18,7,2,13,0.33
2013-7-5,86.7,77.9,69.3,77.9,72.9,67.8,98,85,68,30.26,30.16,9,2,15,0.00
2013-7-6,87.2,78.1,67.9,77.1,72.2,67.3,100,83,63,30.22,30.11,8,2,15,0.00
2013-7-7,86.8,76.8,68.9,76.8,72.1,67.2,97,86,67,30.16,30.03,9,2,16,0.12
2013-7-8,85.0,77.4,69.0,74.5,71.1,68.1,97,82,60,30.16,30.09,7,1,11,0.48
2013-7-9,85.5,76.0,67.8,78.3,72.2,67.2,99,89,76,30.14,30.04,3,0,5,0.00
2013-7-10,88.3,75.8,70.8,80.4,73.4,69.7,99,93,73,30.06,29.92,10,1,16,0.29
2013-7-11,85.9,74.3,67.1,77.2,71.8,66.5,99,93,69,29.96,29.88,9,1,15,2.25
2013-7-12,73.2,68.2,65.9,69.3,67.3,65.6,99,97,84,30.09,29.92,4,0,10,0.33
2013-7-13,82.5,72.8,63.4,76.7,70.3,63.1,100,93,77,30.27,30.08,4,0,7,0.22
2013-7-14,86.5,76.9,69.6,76.6,72.8,69.5,100,88,68,30.36,30.27,4,1,8,0.00
2013-7-15,92.7,79.2,66.4,79.7,73.4,66.1,100,84,59,30.35,30.24,3,1,7,0.01
2013-7-16,92.8,83.4,72.7,81.8,75.9,70.1,97,79,64,30.28,30.19,8,1,16,0.00
2013-7-17,90.2,80.4,71.6,81.5,76.4,71.0,99,88,70,30.25,30.13,4,0,7,0.00
2013-7-18,92.8,81.7,70.5,81.4,76.4,70.2,100,85,63,30.17,30.04,4,1,8,0.00
2013-7-19,91.8,80.6,71.4,81.0,75.4,70.8,99,85,66,30.07,29.92,6,1,9,0.00
2013-7-20,91.5,79.7,72.3,77.8,73.5,69.7,98,82,61,29.95,29.87,7,2,14,0.00
2013-7-21,88.8,77.1,69.9,77.7,72.5,68.0,98,87,66,29.99,29.91,18,1,24,0.78
2013-7-22,86.3,76.6,70.2,79.3,73.6,69.9,100,91,74,29.97,29.78,7,1,11,0.03
2013-7-23,89.5,78.6,69.5,76.0,71.5,67.8,99,80,57,29.80,29.68,7,1,15,0.01
2013-7-24,85.0,75.5,67.4,75.3,70.0,66.0,98,84,68,29.94,29.71,7,1,12,0.60
2013-7-25,79.1,69.6,61.9,69.0,65.0,60.7,99,86,67,30.08,29.92,3,0,7,0.00
2013-7-26,81.7,69.5,56.4,71.0,63.7,55.8,99,83,61,30.13,30.04,4,1,9,0.01
2013-7-27,75.3,69.8,62.9,72.1,67.6,62.6,100,93,83,30.08,29.95,6,0,10,0.03
2013-7-28,84.2,73.9,67.4,75.9,69.5,66.0,97,87,62,30.01,29.90,7,1,11,0.01
2013-7-29,81.9,71.5,59.0,69.7,62.5,57.0,97,75,50,30.20,30.01,4,1,12,0.00
2013-7-30,80.9,69.2,55.4,69.4,62.6,54.8,99,81,56,30.26,30.17,3,1,7,0.01
2013-7-31,78.3,69.1,63.4,71.2,66.5,62.4,99,92,77,30.18,30.04,3,0,6,0.03
2013-8-1,83.5,71.7,67.0,75.5,69.8,66.7,99,94,72,30.04,29.85,5,0,14,0.40
2013-8-2,85.5,74.5,63.6,69.2,65.8,62.1,99,76,47,30.01,29.91,8,2,15,0.01
2013-8-3,83.2,72.9,64.8,72.4,66.3,61.7,97,81,60,30.01,29.94,13,1,18,0.03
2013-8-4,82.7,70.9,59.0,67.8,61.7,56.4,98,76,45,30.08,29.95,9,2,16,0.01
2013-8-5,78.6,66.9,53.6,66.3,60.5,52.8,98,82,55,30.14,30.03,5,1,8,0.00
2013-8-6,79.5,70.6,63.9,72.0,67.3,62.7,98,90,75,30.07,30.01,3,0,7,0.01
2013-8-7,82.0,74.3,68.9,74.3,70.7,67.7,98,89,75,30.08,30.02,6,1,12,0.00
2013-8-8,80.8,74.4,68.5,76.9,72.3,67.9,99,93,82,30.06,30.00,5,0,9,0.04
2013-8-9,91.8,79.5,69.3,78.2,73.9,69.0,100,84,59,30.00,29.90,6,2,13,0.00
2013-8-10,82.0,75.5,71.1,76.9,73.5,70.5,98,93,82,30.12,29.99,10,0,27,0.85
2013-8-11,81.3,73.4,67.7,76.5,71.5,67.1,99,94,82,30.15,30.03,3,0,6,0.26
2013-8-12,88.2,77.3,68.5,76.9,72.3,68.2,100,86,62,30.06,29.93,8,1,12,0.01
2013-8-13,85.6,74.9,70.2,75.6,71.8,68.9,99,91,63,29.94,29.77,6,1,10,0.06
2013-8-14,76.7,67.6,54.3,69.3,57.5,48.5,98,72,52,30.15,29.84,8,2,15,0.00
2013-8-15,76.0,64.4,49.8,61.7,56.0,49.3,99,76,53,30.23,30.13,5,1,8,0.00
2013-8-16,76.8,63.3,49.3,63.0,57.3,48.6,99,83,59,30.25,30.16,4,0,8,0.01
2013-8-17,74.7,63.9,52.2,64.9,59.2,51.6,99,86,63,30.29,30.22,4,0,8,0.02
2013-8-18,67.3,64.0,60.6,65.4,63.2,60.1,100,97,93,30.28,30.20,2,0,7,1.93
2013-8-19,76.8,68.4,63.4,71.7,66.7,62.8,100,94,83,30.24,30.09,5,0,9,0.03
2013-8-20,83.8,73.5,64.9,75.0,70.3,64.6,100,90,72,30.20,30.12,4,0,7,0.00
2013-8-21,86.0,74.2,65.3,77.1,70.3,64.8,100,89,71,30.23,30.11,5,1,9,0.01
2013-8-22,86.6,75.5,66.7,73.7,69.0,65.2,98,82,60,30.13,29.99,9,2,14,0.01
2013-8-23,74.3,66.7,58.2,71.2,65.5,57.6,99,96,86,30.16,29.97,8,1,13,0.97
2013-8-24,81.0,65.8,52.2,68.9,60.2,51.9,100,84,54,30.36,30.16,5,0,10,0.01
2013-8-25,80.2,66.5,53.6,68.0,61.1,52.9,100,85,58,30.44,30.31,4,0,8,0.01
2013-8-26,84.8,70.3,55.9,69.7,63.1,55.1,99,80,49,30.35,30.07,5,1,9,0.01
2013-8-27,88.8,75.2,63.8,76.5,68.9,61.8,96,82,61,30.08,29.94,5,1,11,0.00
2013-8-28,79.0,74.5,71.7,74.3,71.0,67.9,98,89,72,29.99,29.82,9,1,15,0.25
2013-8-29,84.0,74.5,66.3,75.4,71.5,65.4,100,91,72,30.05,29.85,4,0,10,0.02
2013-8-30,84.8,73.4,63.1,76.2,69.2,62.8,100,88,67,30.07,29.92,6,1,11,0.01
2013-8-31,88.8,73.3,65.7,77.4,70.1,65.2,100,91,64,29.95,29.83,11,1,18,0.41
2013-9-1,87.3,72.9,63.8,77.8,70.3,63.4,100,92,68,29.88,29.80,5,0,10,0.09
2013-9-2,89.0,77.7,69.3,75.7,71.7,68.8,100,83,60,29.86,29.76,5,1,9,0.00
2013-9-3,86.1,77.5,66.0,73.3,69.2,60.9,94,76,61,29.98,29.77,7,1,11,0.00
2013-9-4,81.4,68.6,55.9,68.1,62.6,55.2,99,83,56,30.13,29.98,4,1,9,0.00
2013-9-5,86.8,68.4,53.9,69.6,61.0,53.3,99,80,52,30.15,30.03,5,1,8,0.01
2013-9-6,76.0,63.8,52.8,61.3,57.2,51.9,99,81,55,30.28,30.15,3,0,8,0.00
2013-9-7,81.2,65.5,51.2,68.5,60.3,50.6,99,85,59,30.19,29.98,4,1,11,0.01
2013-9-8,86.6,72.1,59.0,75.2,66.8,58.2,99,85,59,30.04,29.90,5,1,9,0.05
2013-9-9,78.2,69.8,63.7,68.9,64.2,58.2,98,83,64,30.22,30.04,2,0,8,0.00
2013-9-10,90.9,75.2,61.8,77.9,70.3,61.5,100,86,62,30.21,30.13,4,1,10,0.00
2013-9-11,91.0,78.0,66.6,79.4,73.0,66.3,100,86,64,30.18,30.04,4,0,7,0.01
2013-9-12,90.8,78.2,66.7,76.1,70.5,65.0,99,79,54,30.04,29.77,6,1,14,0.00
2013-9-13,79.2,71.4,58.6,66.1,58.0,51.2,84,64,43,29.98,29.75,11,2,18,0.00
2013-9-14,71.3,58.2,45.5,54.0,49.0,43.4,95,73,50,30.21,29.97,7,1,13,0.00
2013-9-15,76.8,59.9,43.6,62.6,53.8,42.8,98,83,58,30.27,30.13,6,1,11,0.01
2013-9-16,72.5,61.5,52.3,65.9,58.2,50.8,99,90,64,30.27,30.10,6,0,10,0.00
2013-9-17,69.8,56.3,44.8,58.7,51.7,43.3,98,86,60,30.45,30.27,4,1,11,0.01
2013-9-18,71.3,54.4,38.4,56.7,49.1,37.6,100,84,57,30.38,30.22,4,0,10,0.01
2013-9-19,77.3,62.3,50.4,65.9,57.7,49.3,99,86,65,30.25,30.11,4,1,8,0.00
2013-9-20,76.1,64.7,55.1,68.0,62.0,54.3,99,91,74,30.12,29.98,3,0,7,0.00
2013-9-21,66.7,64.2,59.5,66.4,63.6,58.6,99,98,94,29.98,29.71,6,0,11,0.74
2013-9-22,75.3,62.7,51.8,62.1,56.4,50.8,99,82,53,29.99,29.77,5,1,11,0.02
2013-9-23,71.1,57.1,43.6,56.2,50.0,42.5,100,79,55,30.14,29.98,6,1,10,0.00
2013-9-24,73.9,59.0,50.5,61.4,54.5,49.5,98,86,63,30.15,29.98,4,0,8,0.00
2013-9-25,73.9,60.1,48.3,63.7,55.5,47.8,100,86,63,30.02,29.92,4,0,9,0.01
2013-9-26,76.2,62.2,50.2,60.8,55.8,49.1,97,82,53,30.12,29.93,5,1,10,0.00
2013-9-27,73.8,59.3,44.9,61.5,54.7,44.1,99,86,61,30.26,30.12,3,0,8,0.01
2013-9-28,65.9,59.5,51.5,59.3,56.4,51.0,99,90,74,30.33,30.25,2,0,7,0.00
2013-9-29,73.8,60.3,49.4,59.4,54.0,48.1,99,82,51,30.25,30.09,4,0,8,0.00
2013-9-30,76.5,59.9,45.1,63.1,55.0,44.3,99,85,60,30.13,30.01,3,0,7,0.01
2013-10-1,82.0,66.4,56.2,66.9,59.9,55.1,99,82,50,30.12,30.03,3,0,7,0.00
2013-10-2,85.4,67.3,52.3,66.6,60.0,51.5,98,80,47,30.14,30.04,5,1,8,0.01
2013-10-3,81.8,66.3,54.9,69.6,61.9,54.3,100,87,62,30.16,30.08,2,0,6,0.00
2013-10-4,88.1,69.3,55.9,71.2,63.4,55.3,100,84,53,30.14,30.05,3,0,8,0.01
2013-10-5,87.6,70.9,57.7,72.4,64.8,57.1,100,84,55,30.13,30.03,4,0,7,0.01
2013-10-6,85.3,71.1,57.5,71.8,64.5,57.0,100,82,54,30.06,29.93,8,2,14,0.00
2013-10-7,72.0,66.5,53.3,68.9,61.3,47.6,98,84,60,30.09,29.80,10,2,14,2.11
2013-10-8,67.1,54.6,44.0,54.5,48.3,42.9,97,81,53,30.32,30.08,5,1,16,0.00
2013-10-9,59.8,53.2,46.6,53.6,49.8,45.8,98,89,75,30.34,30.24,3,0,10,0.08
2013-10-10,60.1,55.2,51.0,59.6,54.6,49.8,99,98,95,30.24,30.02,3,0,6,1.11
2013-10-11,67.9,61.2,55.7,61.5,58.7,55.4,100,92,78,30.03,29.97,4,0,9,0.05
2013-10-12,64.4,61.1,59.0,63.6,60.5,58.2,100,98,94,30.18,30.01,3,0,8,0.24
2013-10-13,61.4,59.4,57.7,61.1,59.1,57.4,100,99,98,30.33,30.17,2,0,5,0.67
2013-10-14,66.5,59.0,52.9,61.8,57.6,52.2,99,95,84,30.36,30.25,2,0,6,0.01
2013-10-15,71.8,57.0,47.1,60.6,53.5,46.7,100,89,59,30.27,30.13,4,0,9,0.01
2013-10-16,71.7,61.8,55.9,63.0,58.5,55.1,97,90,72,30.14,29.95,4,0,11,0.00
2013-10-17,71.4,62.8,55.8,65.7,60.0,54.0,100,91,77,29.95,29.78,12,1,17,0.04
2013-10-18,68.5,56.5,44.5,54.2,46.5,41.8,96,71,46,30.07,29.88,7,2,12,0.00
2013-10-19,62.6,52.6,41.8,55.0,48.9,40.8,99,88,66,30.04,29.83,11,1,21,0.00
2013-10-20,65.3,51.8,39.2,47.7,39.5,34.5,95,65,39,30.15,29.93,9,2,14,0.00
2013-10-21,67.9,49.4,34.1,49.7,42.4,33.1,98,80,46,30.20,30.00,6,1,11,0.01
2013-10-22,68.0,56.2,42.4,51.8,46.6,41.6,99,73,52,30.00,29.83,10,3,21,0.00
2013-10-23,58.0,48.5,42.1,48.6,42.0,33.5,97,80,54,29.99,29.70,12,2,19,0.30
2013-10-24,51.2,44.6,35.1,35.5,32.5,26.8,80,63,52,30.22,29.99,11,3,21,0.00
2013-10-25,54.2,44.5,29.0,33.2,29.5,26.4,91,57,40,30.38,30.20,12,4,17,0.00
2013-10-26,57.4,42.2,25.8,36.8,30.6,24.1,95,67,38,30.38,30.01,7,2,14,0.00
2013-10-27,63.9,47.5,35.2,45.7,38.3,32.6,94,73,44,30.18,30.02,7,1,14,0.00
2013-10-28,67.6,46.4,31.8,49.7,40.5,30.8,98,83,47,30.33,30.18,4,0,7,0.00
2013-10-29,68.3,51.2,38.6,51.6,45.6,37.8,98,83,54,30.42,30.31,2,0,5,0.00
2013-10-30,68.7,56.2,46.8,59.9,52.8,45.2,99,89,71,30.37,30.16,4,0,8,0.05
2013-10-31,69.2,60.5,50.5,61.8,56.3,50.0,99,87,71,30.21,29.81,9,2,13,0.00
2013-11-1,77.0,67.2,52.9,63.8,58.4,51.2,96,75,44,29.81,29.62,11,4,22,0.07
2013-11-2,68.3,57.1,44.2,54.3,44.2,37.3,97,65,37,29.95,29.67,13,4,16,0.00
2013-11-3,60.2,48.3,31.5,40.3,35.0,28.9,92,62,36,30.45,29.95,12,2,21,0.00
2013-11-4,48.0,36.5,27.9,32.6,28.9,25.1,94,76,53,30.67,30.45,3,0,7,0.00
2013-11-5,52.4,42.7,30.3,44.3,36.6,28.3,94,80,56,30.67,30.52,2,0,5,0.00
2013-11-6,69.0,53.9,45.6,54.3,48.3,43.9,97,83,58,30.52,30.12,7,1,13,0.00
2013-11-7,64.8,54.0,42.8,57.7,45.1,27.3,98,74,47,30.15,29.92,13,3,20,0.01
2013-11-8,52.5,41.2,29.0,32.4,27.4,25.1,87,60,38,30.38,30.15,10,2,19,0.00
2013-11-9,56.5,40.1,25.1,34.8,29.2,22.8,94,68,40,30.41,30.12,8,2,13,0.00
2013-11-10,66.0,50.5,31.9,39.8,32.6,27.6,89,53,25,30.31,30.01,13,4,23,0.00
2013-11-11,62.0,46.6,35.1,33.8,30.0,25.5,75,55,29,30.35,30.07,7,1,13,0.00
2013-11-12,56.1,41.6,30.7,38.0,25.0,15.4,63,52,37,30.47,29.99,18,3,18,0.00
2013-11-13,45.9,33.4,23.7,22.2,18.8,16.4,79,56,34,30.57,30.45,9,2,18,0.00
2013-11-14,63.9,42.7,22.5,28.4,23.0,15.1,83,51,22,30.46,30.28,6,1,11,0.00
2013-11-15,64.6,45.4,25.7,45.9,30.4,21.4,94,61,23,30.32,30.21,6,1,8,0.19
2013-11-16,51.8,47.8,41.1,50.7,47.0,40.3,98,97,94,30.34,30.27,3,0,4,0.14
2013-11-17,61.5,54.8,49.9,59.8,54.1,49.4,99,97,93,30.28,29.80,9,1,16,0.05
2013-11-18,65.8,59.7,48.7,60.8,40.2,26.9,95,51,30,30.00,29.75,15,5,24,0.06
2013-11-19,51.0,43.0,31.1,31.2,28.2,25.9,85,57,44,30.42,30.00,13,3,22,0.00
2013-11-20,47.3,34.9,28.1,31.8,27.1,24.4,93,75,47,30.59,30.42,5,1,10,0.00
2013-11-21,48.6,41.0,29.9,41.2,35.8,26.8,91,82,72,30.61,30.44,0,0,3,0.00
2013-11-22,65.0,55.8,43.6,56.4,49.6,40.5,92,80,69,30.44,30.05,5,1,8,0.00
2013-11-23,62.2,48.6,33.3,51.4,31.4,14.6,73,53,28,30.25,30.05,18,7,26,0.00
2013-11-24,33.1,26.4,21.1,16.8,8.1,4.6,57,46,35,30.60,30.25,14,5,25,0.00
2013-11-25,38.9,28.0,16.5,20.3,12.6,7.4,83,54,35,30.63,30.39,5,1,9,0.00
2013-11-26,37.4,34.3,32.6,36.6,27.0,15.3,97,77,43,30.40,29.65,7,0,9,2.08
2013-11-27,46.1,37.3,26.9,42.7,30.3,12.6,98,77,53,30.16,29.55,17,6,30,0.23
2013-11-28,41.0,29.2,19.6,22.3,18.2,12.9,90,65,43,30.51,30.15,11,2,16,0.00
2013-11-29,46.1,29.8,17.0,29.7,22.1,15.1,93,75,46,30.77,30.50,5,0,9,0.00
2013-11-30,39.4,27.0,17.1,28.1,21.3,15.2,94,80,56,30.76,30.43,2,0,5,0.00
2013-12-1,57.4,36.2,18.6,34.6,26.8,16.7,94,73,37,30.43,30.06,6,1,13,0.01
2013-12-2,49.2,42.1,38.4,38.7,35.8,34.0,89,79,63,30.06,29.90,3,0,5,0.00
2013-12-3,59.0,42.6,33.1,43.0,37.0,31.6,95,82,55,30.05,29.92,3,0,6,0.00
2013-12-4,63.1,49.6,38.1,52.4,45.3,36.3,96,86,68,30.10,30.01,6,0,8,0.00
2013-12-5,65.1,58.8,51.1,62.2,55.8,49.3,95,90,80,30.10,29.97,7,1,11,0.00
2013-12-6,66.6,54.8,41.7,64.5,53.5,41.2,98,96,91,30.16,29.92,6,1,23,1.40
2013-12-7,43.7,38.1,27.4,41.2,34.9,25.3,98,89,73,30.57,30.13,4,1,7,0.12
2013-12-8,31.6,28.9,27.2,30.6,26.5,23.4,96,91,81,30.60,30.33,4,0,8,0.00
2013-12-9,39.9,34.0,31.5,39.1,33.2,30.5,98,97,96,30.35,30.06,4,1,9,0.28
2013-12-10,40.2,34.1,31.2,39.3,29.4,18.8,99,85,56,30.29,30.03,13,2,27,0.34
2013-12-11,45.4,35.2,27.0,25.0,20.0,16.2,80,55,42,30.44,30.28,13,3,18,0.01
2013-12-12,37.0,32.0,26.9,22.9,16.7,8.9,66,53,41,30.36,30.30,7,2,11,0.00
2013-12-13,46.7,35.6,27.4,25.5,16.9,10.6,75,48,34,30.36,30.25,17,6,28,0.00
2013-12-14,34.8,33.1,30.9,33.8,30.5,23.8,100,90,71,30.34,29.79,3,0,5,0.38
2013-12-15,47.4,40.0,33.4,40.8,31.5,25.0,98,73,53,30.02,29.69,16,5,24,0.01
2013-12-16,44.2,37.9,31.0,31.5,28.4,26.4,85,69,58,30.19,30.00,11,3,14,0.00
2013-12-17,53.0,37.0,23.6,39.6,31.0,22.1,95,80,57,30.17,29.94,19,2,20,0.05
2013-12-18,43.8,37.8,27.3,29.2,22.8,18.3,79,55,39,30.26,30.05,12,3,21,0.00
2013-12-19,65.8,44.5,27.1,33.6,27.4,17.0,81,55,29,30.24,30.14,10,2,22,0.00
2013-12-20,62.2,45.5,32.3,39.8,34.3,28.5,89,68,37,30.18,30.06,8,1,13,0.00
2013-12-21,68.6,58.0,43.7,61.2,50.1,38.0,87,75,63,30.09,29.95,11,3,19,0.00
2013-12-22,68.5,64.5,59.7,64.8,60.0,55.8,93,86,66,30.03,29.89,14,5,27,0.21
2013-12-23,62.9,55.0,37.1,61.4,49.2,28.0,98,81,59,30.25,29.96,8,3,20,0.65
2013-12-24,41.1,32.5,21.4,28.1,20.7,8.3,83,62,45,30.53,30.23,14,4,21,0.00
2013-12-25,35.1,24.0,15.6,17.6,13.8,8.4,89,66,46,30.62,30.42,7,1,11,0.00
2013-12-26,48.2,31.1,16.7,28.8,21.1,14.0,91,70,39,30.44,30.26,13,3,20,0.00
2013-12-27,53.0,34.0,21.1,29.6,21.6,17.8,89,65,33,30.48,30.37,7,1,12,0.00
2013-12-28,59.6,39.8,20.9,32.0,25.9,18.1,91,62,30,30.42,30.18,9,1,15,0.00
2013-12-29,52.9,44.9,38.9,47.1,40.1,29.5,98,84,50,30.18,29.62,16,3,22,1.75
2013-12-30,47.8,42.6,32.3,39.6,33.7,28.3,88,71,58,30.20,29.88,8,2,13,0.01
2013-12-31,44.6,35.6,25.2,30.0,23.8,18.2,93,65,42,30.38,30.18,25,4,35,0.00
2014-1-1,51.8,35.0,24.4,30.7,23.9,19.0,92,66,41,30.44,30.15,7,1,17,0.00
2014-1-2,38.0,30.8,25.7,32.3,27.9,23.4,100,89,68,30.15,29.66,8,0,13,0.11